Retour au catalogue

ORBCOMM FM 112

ActifCommunicationsLEO
NORAD 41184·PAYLOAD·🇺🇸 United States

Lancé Dec 22, 2015 depuis Cape Canaveral Space Force Station

Loading…

Prochains Passages (prochaines 24 heures)

TLE

FraisSource: Space-Track

Époque: Sep 14, 2026, 05:44 UTC

1 41184U 15081F   26257.23894963  .00000416  00000-0  12407-3 0  9997
2 41184  46.9980 209.1163 0003578 266.9300  93.1176 14.58956339571954

Suivez ORBCOMM FM 112 en temps réel avec AllMySat

Download on the App Store